Showing default

USA 164, 27168

Orbit data source: Space-Track

USA 164, 27168 is a payload satellite owned by USAF SMC (US) in GEO that was launched on Mon, 14 Jan 2002 UTC via a TITAN 401B/CENTAUR launch vehicle from the Air Force Eastern Test Range (AFETR). Payload-class satellites include a variety of spacecraft equipped with specific instruments for various scientific and technological missions. These include communications satellites like Starlink; space stations such as the ISS; scientific satellites like the Hubble; Earth observation satellites from companies like Planet Labs, Umbra, and HawkEye 360; GPS; miniature CubeSats for education and research; and military/defense satellites.

Not visible in the next 10 days
Identifier
27168, 2002-001A
Orbit
GEO
Country
Flag of USUS
Related business
Manufacturer
LMMS/Sunnyvale
Mission
Operational Defense Communications
Bus & Motor
MILSTAR, AOCS
Mass
4,500 kg wet, ~4,200 kg dry
Launch date (UTC)
2002-01-14 (24 years ago)
Launch vehicle
TITAN 401B/CENTAUR
Launch site
Air Force Eastern Test Range (AFETR)
Object type
Payload
Rocket body
Debris
Shape & HBR
Cyl + 1 Truss + 1 Ant, 17.5 m
Radar Cross Section
74.603 m²

Expand to show TLE details & history
Last TLE update: 11 hours ago

TLE from 11 hours ago
0 USA 164
1 27168U 02001A   25353.77039225  .00000113  00000-0  00000-0 0  9995
2 27168  10.9640  22.9635 0097564   3.0370 358.8810  1.00273867 31165
Epoch: 2025-12-19T18:29Z
TLE epoch observation values (Epoch: 2025-12-19T18:29:21.890Z)
Latitude
0.3627°
Longitude
18.86191°
Altitude
35,375.477 km
Speed
3.105 km/s
True Right ascension
01h 39m 14s
True Declination
0° 21' 44"
Sunlit
Object was in daylight at epoch
Visualization orbit readout
Latitude
Unknown
Longitude
Unknown
Altitude
Unknown
Speed
Unknown
Apparent Right ascension
Unknown
Apparent Declination
Unknown
Sunlit
N/A
Visualization observer readout
Local Sidereal Time
04:14:47
Azimuth
Unknown
Elevation
Unknown
Doppler factor
Unknown
Orbital elements
Apogee altitude
36,198.405 km
Perigee altitude
35,375.645 km
Semi-major axis
42,165.162 km
Eccentricity
0.00976
Inclination
10.964°
RAAN
22.9635°
Arg. of periapsis
3.037°
True anomaly
358.8589°
Mean anomaly
358.881°
Eccentric anomaly
358.86998°
Mean motion
0.25068 °/min
Orbital period
1,436.12 mins
BSTAR
0
Loading maneuver chart data...
Computing Atmospheric mass density...
Loading historical data...
Loading historical data...
Loading historical data...
Loading historical data...
Loading historical data...
Loading historical data...
Loading historical data...
Other satellites on launch #1 in the year 2002 (2002-01-14 UTC)

Documentation

Showing up to 5 results
|